TimeCST,TemperatureF,Dew PointF,Humidity,Sea Level PressureIn,VisibilityMPH,Wind Direction,Wind SpeedMPH,Gust SpeedMPH,PrecipitationIn,Events,Conditions,WindDirDegrees,DateUTC
12:13 AM,14.0,12.2,93,30.05,10.0,NW,5.8,-,N/A,,Overcast,320,2012-12-31 06:13:00
12:33 AM,15.8,12.2,86,30.05,10.0,NNW,6.9,-,N/A,,Overcast,340,2012-12-31 06:33:00
12:53 AM,15.8,14.0,93,30.05,10.0,NNW,9.2,-,N/A,,Overcast,340,2012-12-31 06:53:00
1:13 AM,17.6,15.8,93,30.05,10.0,North,10.4,16.1,N/A,,Overcast,350,2012-12-31 07:13:00
1:33 AM,19.4,15.8,86,30.06,10.0,North,10.4,18.4,N/A,,Overcast,360,2012-12-31 07:33:00
1:53 AM,19.4,17.6,93,30.07,10.0,North,9.2,16.1,N/A,,Overcast,360,2012-12-31 07:53:00
2:13 AM,19.4,15.8,86,30.09,10.0,NNW,16.1,20.7,N/A,,Overcast,340,2012-12-31 08:13:00
2:33 AM,19.4,15.8,86,30.09,10.0,North,10.4,19.6,N/A,,Overcast,350,2012-12-31 08:33:00
2:53 AM,19.4,15.8,86,30.10,10.0,NNW,11.5,-,N/A,,Overcast,340,2012-12-31 08:53:00
3:13 AM,19.4,15.8,86,30.11,10.0,NNW,12.7,-,N/A,,Overcast,340,2012-12-31 09:13:00
3:33 AM,17.6,14.0,86,30.10,10.0,NNW,12.7,-,N/A,,Overcast,340,2012-12-31 09:33:00
3:53 AM,17.6,14.0,86,30.12,10.0,North,12.7,-,N/A,,Overcast,350,2012-12-31 09:53:00
4:13 AM,17.6,12.2,79,30.10,10.0,North,9.2,20.7,N/A,,Overcast,350,2012-12-31 10:13:00
4:33 AM,-9999,-9999,N/A,-9999,10.0,North,6.9,-,N/A,,Overcast,360,2012-12-31 10:33:00
4:53 AM,17.6,10.4,73,30.11,10.0,North,5.8,-,N/A,,Overcast,360,2012-12-31 10:53:00
5:13 AM,17.6,10.4,73,30.13,10.0,NNW,3.5,-,N/A,,Overcast,340,2012-12-31 11:13:00
5:33 AM,17.6,12.2,79,30.14,10.0,NNW,4.6,-,N/A,,Overcast,330,2012-12-31 11:33:00
5:53 AM,17.6,12.2,79,30.13,10.0,North,5.8,-,N/A,Snow,Light Snow,350,2012-12-31 11:53:00
6:33 AM,17.6,12.2,79,30.11,10.0,NNW,8.1,-,N/A,Snow,Light Snow,340,2012-12-31 12:33:00
6:53 AM,17.6,12.2,79,30.12,10.0,North,6.9,-,N/A,Snow,Light Snow,350,2012-12-31 12:53:00
7:33 AM,17.6,12.2,79,30.13,10.0,North,5.8,-,N/A,,Overcast,360,2012-12-31 13:33:00
8:13 AM,15.8,10.4,79,30.13,10.0,North,6.9,-,N/A,,Mostly Cloudy,360,2012-12-31 14:13:00
8:33 AM,12.2,8.6,85,30.14,10.0,NNE,8.1,-,N/A,,Scattered Clouds,20,2012-12-31 14:33:00
8:53 AM,12.2,8.6,85,30.15,10.0,NNE,5.8,-,N/A,Snow,Light Snow,30,2012-12-31 14:53:00
9:13 AM,12.2,8.6,85,30.15,10.0,NNE,5.8,-,N/A,Snow,Light Snow,30,2012-12-31 15:13:00
9:33 AM,10.4,8.6,92,30.15,10.0,NE,9.2,-,N/A,Snow,Light Snow,40,2012-12-31 15:33:00
9:53 AM,10.4,6.8,85,30.16,10.0,NE,5.8,-,N/A,Snow,Light Snow,50,2012-12-31 15:53:00
10:13 AM,10.4,6.8,85,30.15,10.0,NE,8.1,-,N/A,,Scattered Clouds,50,2012-12-31 16:13:00
10:33 AM,10.4,6.8,85,30.16,10.0,ENE,6.9,-,N/A,,Clear,60,2012-12-31 16:33:00
10:53 AM,10.4,6.8,85,30.16,10.0,NE,9.2,-,N/A,,Clear,40,2012-12-31 16:53:00
11:13 AM,10.4,5.0,79,30.16,10.0,NE,10.4,-,N/A,,Clear,50,2012-12-31 17:13:00
11:33 AM,10.4,5.0,79,30.15,10.0,NE,8.1,-,N/A,,Clear,50,2012-12-31 17:33:00
11:53 AM,10.4,5.0,79,30.15,10.0,ENE,9.2,-,N/A,,Clear,60,2012-12-31 17:53:00
12:13 PM,10.4,5.0,79,30.15,10.0,ENE,6.9,-,N/A,,Clear,70,2012-12-31 18:13:00
12:33 PM,10.4,3.2,73,30.15,10.0,NE,6.9,-,N/A,,Clear,50,2012-12-31 18:33:00
12:53 PM,10.4,3.2,73,30.15,10.0,East,5.8,-,N/A,,Clear,80,2012-12-31 18:53:00
1:14 PM,10.4,3.2,73,30.15,7.0,ENE,8.1,-,N/A,,Clear,60,2012-12-31 19:14:00
1:33 PM,8.6,3.2,79,30.14,10.0,NE,8.1,-,N/A,,Clear,40,2012-12-31 19:33:00
1:53 PM,8.6,3.2,79,30.15,10.0,NE,4.6,-,N/A,,Clear,50,2012-12-31 19:53:00
2:13 PM,8.6,3.2,79,30.15,10.0,ENE,4.6,-,N/A,,Clear,70,2012-12-31 20:13:00
2:33 PM,8.6,3.2,79,30.15,10.0,NE,6.9,-,N/A,,Clear,40,2012-12-31 20:33:00
2:54 PM,8.6,3.2,79,30.16,10.0,NNE,5.8,-,N/A,,Clear,20,2012-12-31 20:54:00
3:13 PM,6.8,1.4,79,30.16,10.0,NE,4.6,-,N/A,,Clear,40,2012-12-31 21:13:00
3:33 PM,6.8,1.4,79,30.16,10.0,NNE,5.8,-,N/A,,Clear,30,2012-12-31 21:33:00
3:54 PM,6.8,1.4,79,30.16,10.0,NE,5.8,-,N/A,,Clear,40,2012-12-31 21:54:00
4:13 PM,5.0,-0.4,78,30.15,10.0,NE,4.6,-,N/A,,Clear,40,2012-12-31 22:13:00
4:33 PM,3.2,-2.2,78,30.15,10.0,NE,6.9,-,N/A,,Clear,40,2012-12-31 22:33:00
5:13 PM,1.4,-2.2,85,30.16,10.0,North,4.6,-,N/A,,Clear,10,2012-12-31 23:13:00
5:33 PM,1.4,-2.2,85,30.17,10.0,Calm,Calm,-,N/A,,Clear,0,2012-12-31 23:33:00
5:54 PM,1.4,-2.2,85,30.17,10.0,NNE,3.5,-,N/A,,Clear,20,2012-12-31 23:54:00
5:59 PM,1.4,-2.2,85,30.17,10.0,NNE,4.6,-,N/A,,Clear,20,2012-12-31 23:59:00
6:33 PM,1.4,-2.2,85,30.18,10.0,North,3.5,-,N/A,,Clear,10,2013-01-01 00:33:00
6:53 PM,1.4,-2.2,85,30.18,10.0,NNE,5.8,-,N/A,,Clear,20,2013-01-01 00:53:00
7:13 PM,-0.4,-2.2,92,30.17,10.0,NNE,5.8,-,N/A,,Clear,20,2013-01-01 01:13:00
7:33 PM,-0.4,-4.0,85,30.18,10.0,NE,4.6,-,N/A,,Clear,40,2013-01-01 01:33:00
7:53 PM,-2.2,-7.6,78,30.18,10.0,Calm,Calm,-,N/A,,Clear,0,2013-01-01 01:53:00
8:33 PM,-2.2,-5.8,85,30.17,10.0,NE,4.6,-,N/A,,Mostly Cloudy,50,2013-01-01 02:33:00
8:53 PM,-0.4,-4.0,85,30.17,10.0,ENE,3.5,-,N/A,,Overcast,70,2013-01-01 02:53:00
9:14 PM,1.4,-2.2,85,30.17,10.0,ENE,3.5,-,N/A,,Overcast,60,2013-01-01 03:14:00
9:34 PM,1.4,-0.4,92,30.17,10.0,Calm,Calm,-,N/A,,Overcast,0,2013-01-01 03:34:00
10:13 PM,3.2,-0.4,85,30.17,10.0,East,4.6,-,N/A,,Overcast,90,2013-01-01 04:13:00
10:34 PM,3.2,-0.4,85,30.17,10.0,ESE,4.6,-,N/A,,Overcast,110,2013-01-01 04:34:00
10:53 PM,3.2,-0.4,85,30.18,10.0,Calm,Calm,-,N/A,,Overcast,0,2013-01-01 04:53:00
11:13 PM,5.0,-0.4,78,30.19,10.0,Calm,Calm,-,N/A,,Overcast,0,2013-01-01 05:13:00
11:33 PM,5.0,1.4,85,30.19,10.0,Calm,Calm,-,N/A,,Overcast,0,2013-01-01 05:33:00
11:53 PM,5.0,1.4,85,30.19,10.0,Calm,Calm,-,N/A,,Overcast,0,2013-01-01 05:53:00